Weather History for Truth Or Consequences, NM

Change the Weather History Date:

Thursday, October 4, 2012

  Actual Average Record
Temperature  
Mean Temperature 76 °F -  
Max Temperature 90 °F 79 °F 91 °F (2007)
Min Temperature 63 °F 52 °F 43 °F (2002)
Degree Days  
Heating Degree Days 0    
Month to date heating degree days  
Since 1 July heating degree days  
Cooling Degree Days 12    
Month to date cooling degree days  
Year to date cooling degree days  
Growing Degree Days 26 (Base 50)    
Moisture  
Dew Point 26 °F    
Average Humidity 16    
Maximum Humidity 24    
Minimum Humidity 8    
Precipitation  
Precipitation 0.00 in - 0.13 in (2011)
Month to date precipitation 0.00  
Year to date precipitation 2.57  
Sea Level Pressure  
Sea Level Pressure 29.91 in    
Wind  
Wind Speed 9 mph (WSW)    
Max Wind Speed 29 mph    
Max Gust Speed 45 mph    
Visibility 10 miles    
Events      
T = Trace of Precipitation, MM = Missing Value Source: NWS Daily Summary

Daily Weather History Graph

Daily Weather History Graph

Search for Another Location

Airport:

Trip Planner

Search our weather history database for the weather conditions in past years. The results will help you decide how hot, cold, wet, or windy it might be!

Date:

Astronomy

Oct. 04, 2012 Rise Set
Actual Time 7:05 AM MDT 6:48 PM MDT
Civil Twilight 6:41 AM MDT 7:13 PM MDT
Nautical Twilight 6:12 AM MDT 7:42 PM MDT
Astronomical Twilight 5:43 AM MDT 8:11 PM MDT
Moon 9:40 PM MDT (10/4) 11:11 AM MDT (10/4)
Length of Visible Light 12h 32m
Length of Day
11h 43m
Waning Gibbous, 81% of the Moon is Illuminated
Oct 4
Waning Gibbous
Oct 8
Last Quarter
Oct 15
New
Oct 21
First Quarter
Oct 29
Full

Hourly Weather History & Observations

Time (MDT) Temp. Dew Point Humidity Pressure Visibility Wind Dir Wind Speed Gust Speed Precip Events Conditions
12:53 AM 69.1 °F 24.1 °F 18% 29.88 in 10.0 mi NW 10.4 mph - N/A   Clear
1:53 AM 70.0 °F 25.0 °F 18% 29.87 in 10.0 mi NW 11.5 mph - N/A   Clear
2:53 AM 68.0 °F 25.0 °F 20% 29.88 in 10.0 mi WNW 11.5 mph - N/A   Clear
3:53 AM 69.1 °F 26.1 °F 20% 29.87 in 10.0 mi NW 11.5 mph - N/A   Clear
4:53 AM 68.0 °F 26.1 °F 21% 29.88 in 10.0 mi NW 11.5 mph - N/A   Clear
5:53 AM 64.0 °F 26.1 °F 24% 29.92 in 10.0 mi WNW 8.1 mph - N/A   Clear
6:53 AM 64.0 °F 26.1 °F 24% 29.95 in 10.0 mi NNW 11.5 mph - N/A   Clear
7:53 AM 66.0 °F 26.1 °F 22% 29.97 in 10.0 mi NW 5.8 mph - N/A   Clear
8:53 AM 72.0 °F 27.0 °F 19% 29.99 in 10.0 mi Calm Calm - N/A   Clear
9:53 AM 75.0 °F 28.9 °F 18% 30.01 in 10.0 mi Calm Calm - N/A   Clear
10:53 AM 77.0 °F 30.0 °F 18% 30.01 in 10.0 mi SE 4.6 mph - N/A   Clear
11:53 AM 82.0 °F 28.0 °F 14% 29.99 in 10.0 mi South 6.9 mph - N/A   Clear
12:53 PM 84.0 °F 27.0 °F 13% 29.96 in 10.0 mi SSE 8.1 mph - N/A   Clear
1:53 PM 84.9 °F 27.0 °F 12% 29.91 in 10.0 mi Variable 6.9 mph 16.1 mph N/A   Clear
2:53 PM 88.0 °F 27.0 °F 11% 29.87 in 10.0 mi South 15.0 mph 21.9 mph N/A   Clear
3:53 PM 89.1 °F 27.0 °F 11% 29.83 in 10.0 mi SSE 17.3 mph 27.6 mph N/A   Clear
4:53 PM 90.0 °F 21.9 °F 8% 29.81 in 10.0 mi WSW 15.0 mph 23.0 mph N/A   Clear
5:53 PM 87.1 °F 24.1 °F 10% 29.83 in 10.0 mi WSW 13.8 mph - N/A   Clear
6:53 PM 82.0 °F 26.1 °F 13% 29.86 in 10.0 mi WSW 15.0 mph 25.3 mph N/A   Clear
7:53 PM 79.0 °F 26.1 °F 14% 29.89 in 10.0 mi SW 10.4 mph - N/A   Clear
8:53 PM 75.9 °F 26.1 °F 16% 29.91 in 10.0 mi SSW 6.9 mph - N/A   Clear
9:53 PM 73.0 °F 26.1 °F 17% 29.91 in 10.0 mi West 8.1 mph - N/A   Clear
10:53 PM 69.1 °F 26.1 °F 20% 29.92 in 10.0 mi West 6.9 mph - N/A   Clear
11:53 PM 66.9 °F 26.1 °F 21% 29.90 in 10.0 mi Calm Calm - N/A   Clear